Regional Weather Roundup
Issued by NWS

Home | Current Version | Previous Version | Graphics & Text | Print | Product List | Glossary Off
Versions: 1 2 3 4 5 6 7 8 9 10 11 12 13 14 15 16 17 18 19 20 21 22 23 24 25 26 27 28 29 30 31 32 33 34 35 36 37 38 39 40 41 42 43 44 45 46 47 48 49 50

000
ASUS43 KDMX 271707
RWRIA

WEATHER ROUNDUP FOR IOWA
NATIONAL WEATHER SERVICE DES MOINES IA
1200 PM CDT MON JUL 27 2015

NOTE: "FAIR" INDICATES FEW OR NO CLOUDS BELOW 12,000 FEET WITH NO
SIGNIFICANT WEATHER AND/OR OBSTRUCTIONS TO VISIBILITY.

* - THESE STATIONS ARE NOT NWS STATIONS...THUS NOT UNDER NWS
QUALITY CONTROL.  THEY ALSO DO NOT REPORT WEATHER SUCH
AS PRECIPITATION OR FOG.

IAZ001>003-012>014-020>022-031>034-043>046-271800-
   NORTHWEST IOWA

CITY           SKY/WX    TMP DP  RH WIND       PRES   REMARKS
CARROLL *      LGT RAIN  70  68  94 NE23G29   29.93F
CHEROKEE *     CLOUDY    77  72  83 SE13G18   29.90F
DENISON *      SUNNY     72  66  83 E13       29.90F HAZE
LE MARS *      SUNNY     79  68  69 SE13G22   29.89S HX  81
ORANGE CITY *  SUNNY     79  66  65 SE6       29.89F HX  81
SHELDON *      SUNNY     79  68  69 S7        29.90F HX  81
SIOUX CITY     PTSUNNY   80  69  69 SE15G24   29.87F HX  83
SPENCER        CLOUDY    77  67  71 S7        29.95R
STORM LAKE *   SUNNY     72  70  94 E7        29.96F
$$

IAZ055>058-069>071-079>083-090>094-271800-
   SOUTHWEST IOWA

CITY           SKY/WX    TMP DP  RH WIND       PRES   REMARKS
ATLANTIC *     SUNNY     73  72  94 CALM      29.93R
AUDUBON *      CLOUDY    70  66  88 NE9       29.97R
CLARINDA *     SUNNY     82  79  89 CALM      29.92S HX  93
COUNCIL BLFS * PTSUNNY   81  77  89 E7        29.93R HX  88
CRESTON *      SUNNY     84  79  84 SE12G17   29.93R HX  96
HARLAN  *      SUNNY     73  73 100 NE7       29.96S
LAMONI         PTSUNNY   89  80  74 VRB6      29.93R HX 106
RED OAK *      PTSUNNY   81  79  94 SE5       29.90F HX  89
SHENANDOAH *   SUNNY     81  77  89 W3        29.92R HX  88
$$

IAZ047>049-059>061-072>074-084-271800-
   CENTRAL IOWA

CITY           SKY/WX    TMP DP  RH WIND       PRES   REMARKS
AMES           CLOUDY    79  74  84 NE7       29.98R HX  82
ANKENY *       SUNNY     79  77  94 E7        29.96R HX  83
CHARITON *     SUNNY     86  79  79 E8        29.94R HX  99
DES MOINES     CLOUDY    83  75  77 E10       29.95R HX  90
GRINNELL*      PTSUNNY   82  73  74 E8        29.99R HX  88
KNOXVILLE *    MOSUNNY   84  77  79 VRB6      29.95R HX  94
MARSHALLTOWN   CLOUDY    79  73  82 E3        29.99R HX  82
PELLA *        PTSUNNY   84  79  84 SE8       29.98R HX  96
PERRY *        HVY RAIN  70  68  94 NW24G43   30.02R
$$

IAZ004>006-015-016-023>025-035-036-271800-
   NORTH CENTRAL IOWA

CITY           SKY/WX    TMP DP  RH WIND       PRES   REMARKS
ALGONA *       MOSUNNY   75  73  94 SE15G23   29.93F FOG
CLARION *      CLOUDY    73  73 100 SE13      29.98F FOG
ESTHERVILLE    CLOUDY    74  70  87 SE5       29.93R
FORT DODGE *   CLOUDY    70  66  88 SW5       29.99R
MASON CITY     CLOUDY    75  73  93 SE9       30.01S
FOREST CITY *  CLOUDY    73  73 100 SE10      29.99S
IOWA FALLS *     N/A     77  72  83 E6        30.02S
$$

IAZ007>011-017>019-026>030-037>042-050>054-066-271800-
   NORTHEAST IOWA

CITY           SKY/WX    TMP DP  RH WIND       PRES   REMARKS
CEDAR RAPIDS   MOSUNNY   81  75  82 SE6       29.98S HX  87
CHARLES CITY * PTSUNNY   79  75  89 SE9       30.02R HX  82
CLINTON *      MOSUNNY   82  72  69 SE12      30.01F HX  87
DUBUQUE        MOSUNNY   81  69  67 E9        30.01F HX  84
MONTICELLO *   MOSUNNY   81  73  78 E10G16    29.99S HX  85
OELWEIN *      MOSUNNY   81  72  74 SE7       30.02R HX  84
WATERLOO       CLOUDY    81  72  74 SE6       29.99R HX  85
$$

IAZ064-065-067-068-078-271800-
   EAST CENTRAL IOWA

CITY           SKY/WX    TMP DP  RH WIND       PRES   REMARKS
DAVENPORT      MOSUNNY   83  71  67 E12       29.99F HX  87
IOWA CITY      MOSUNNY   83  73  72 E10       29.98S HX  89
MT. PLEASANT * SUNNY     88  70  55 E7        29.97S HX  92
MUSCATINE *    MOSUNNY   84  72  65 E8        29.97S HX  89
QUAD CITIES    MOSUNNY   83  71  67 SE9       29.98F HX  87
$$

IAZ062-063-075>077-085>089-095>099-271800-
   SOUTHEAST IOWA

CITY           SKY/WX    TMP DP  RH WIND       PRES   REMARKS
BURLINGTON     PTSUNNY   84  75  74 SE8       29.96F HX  92
FAIRFIELD *    SUNNY     84  75  74 E9        29.97R HX  92
FORT MADISON * MOSUNNY   84  79  84 SE5       29.97S HX  96
KEOKUK *       MOSUNNY   84  75  74 SE9       29.95S HX  92
OSKALOOSA *    PTSUNNY   84  75  74 SE6       29.97R HX  92
CENTERVILLE *  MOSUNNY   84  79  84 SE9       29.96R HX  96
OTTUMWA        MOSUNNY   85  77  77 SE10      29.94R HX  95
WASHINGTON *   PTSUNNY   84  75  74 SE9       29.98S HX  92
$$

ABBREVIATIONS USED IN REMARKS
   TC - TEMPERATURES IN CELSIUS
  WCI - WIND CHILL INDEX
   HX - HEAT INDEX
  VSB - VISIBILITY
$$




USA.gov is the U.S. government's official web portal to all federal, state and local government web resources and services.